Location: Cointrin
(46.2167°N, 6.1167°E)
Time: 06:20:52
(UTC+00:00)

SL-08 RB Rocket - Pass Details

Date: 08 February 2023
Orbit: 643 x 682 km, 97.7° (Epoch: 25 March)

Event Time Altitude Azimuth Distance (km) Brightness Sun altitude
Rises 17:16:33 0° 174° (S) 3,025 7.2 -5.1°
Reaches altitude 10° 17:18:48 10° 177° (S) 2,118 6.5 -5.5°
Maximum altitude 17:23:24 63° 259° (W) 764 4.4 -6.3°
Drops below altitude 10° 17:28:03 10° 341° (NNW) 2,138 6.4 -7.0°
Sets 17:30:20 0° 345° (NNW) 3,056 7.1 -7.4°
